Location: Newark
(20.0000°S, 47.0000°E)
Time: 17:34:20
(UTC+00:00)

Envisat - Pass Details

Date: 27 June 2019
Orbit: 764 x 766 km, 98.1° (Epoch: 19 October)

Event Time Altitude Azimuth Distance (km) Brightness Sun altitude
Exits shadow 15:02:54 10° 133° (SE) 2,339 4.9 -9.5°
Reaches altitude 10° 15:02:59 10° 132° (SE) 2,312 4.9 -9.5°
Maximum altitude 15:06:52 22° 82° (E) 1,632 4.2 -10.4°
Drops below altitude 10° 15:10:43 10° 32° (NNE) 2,292 5.4 -11.2°
Sets 15:13:29 0° 17° (NNE) 3,210 6.3 -11.8°
